Location: Unspecified
(56.5167°N, 0.0000°E)
Time: 16:53:18
(UTC+01:00)

ISS - Visible Passes

Search period start: 09 February 2016 00:00
Search period end: 19 February 2016 00:00
Orbit: 399 x 408 km, 51.6° (Epoch: 09 February)

Date Brightness Start Highest point End Pass type
(mag) Time Alt. Az. Time Alt. Az. Time Alt. Az.
09 Feb -2.1 19:20:44 10° SW 19:23:38 31° S 19:25:08 21° ESE visible
09 Feb -0.7 20:56:44 10° WSW 20:57:46 17° WSW 20:57:46 17° WSW visible
10 Feb -1.7 18:28:24 10° SW 18:31:10 26° SSE 18:33:58 10° ESE visible
10 Feb -2.3 20:04:11 10° WSW 20:07:10 34° S 20:07:17 34° S visible
11 Feb -2.2 19:11:40 10° WSW 19:14:39 34° S 19:16:48 16° ESE visible
11 Feb -1.0 20:47:52 10° WSW 20:49:27 20° SW 20:49:27 20° SW visible
12 Feb -2.0 19:55:14 10° WSW 19:58:09 30° S 19:58:58 26° SSE visible
13 Feb -2.0 19:02:38 10° WSW 19:05:37 34° S 19:08:31 10° ESE visible
13 Feb -1.1 20:39:06 10° WSW 20:41:09 19° SW 20:41:09 19° SW visible
14 Feb -1.5 19:46:19 10° WSW 19:49:03 24° SSW 19:50:45 16° SSE visible
15 Feb -1.7 18:53:38 10° WSW 18:56:31 29° SSW 18:59:24 10° SE visible
15 Feb -0.7 20:30:40 10° WSW 20:32:16 13° SSW 20:33:02 12° SSW visible
16 Feb -0.9 19:37:33 10° WSW 19:39:49 18° SSW 19:42:05 10° SSE visible
17 Feb -1.1 18:44:41 10° WSW 18:47:19 23° SSW 18:49:57 10° SSE visible
18 Feb -0.3 19:29:14 10° SW 19:30:28 12° SW 19:31:42 10° SSW visible
